STARLINK-35968, 66636

Orbit data source: Space-Track

STARLINK-35968, 66636 is a payload satellite owned by SpaceX/Seattle (US) in LEO that was launched on Sun, 23 Nov 2025 UTC via an FALCON 9 launch vehicle from the Air Force Western Test Range (AFWTR). Payload-class satellites include a variety of spacecraft equipped with specific instruments for various scientific and technological missions. These include communications satellites like Starlink; space stations such as the ISS; scientific satellites like the Hubble; Earth observation satellites from companies like Planet Labs, Umbra, and HawkEye 360; GPS; miniature CubeSats for education and research; and military/defense satellites.

Loading next visibility...
Identifier
66636, 2025-271V
Orbit
LEO
Country
Flag of USUS
Related business
Manufacturer
SpaceX/Seattle
Mission
Operational Commercial Communications
Bus & Motor
STARLINK V2MO, Unknown motor
Mass
575 kg wet, ~530 kg dry
Launch date (UTC)
2025-11-23 (7 months ago)
Launch vehicle
FALCON 9
Launch site
Air Force Western Test Range (AFWTR)
Object type
Payload
Rocket body
Debris
Shape & HBR
Box + 2 Pan, 17.7 m
Radar Cross Section
36.964 m², Large (>1 m²)

Expand to show TLE details & history
Last TLE update: 4 days ago

TLE from 4 days ago
0 STARLINK-35968
1 66636U 25271V   26167.90039485  .00025763  00000-0  87756-3 0  9993
2 66636  53.1613  39.2923 0001351 101.2730 258.8423 15.30250628 32751
Epoch: 2026-06-16T21:36Z
TLE epoch observation values (Epoch: 2026-06-16T21:36:34.115Z)
Latitude
0.00003°
Longitude
169.98438°
Altitude
476.143 km
Speed
7.629 km/s
True Right ascension
02h 37m 10s
True Declination
0° 00' 00"
Sunlit
Object was in daylight at epoch
Visualization orbit readout
Latitude
Unknown
Longitude
Unknown
Altitude
Unknown
Speed
Unknown
Apparent Right ascension
Unknown
Apparent Declination
Unknown
Sunlit
N/A
Visualization observer readout
Local Sidereal Time
07:21:24
Azimuth
Unknown
Elevation
Unknown
Doppler factor
Unknown
Orbital elements
Apogee altitude
476.246 km
Perigee altitude
474.394 km
Semi-major axis
6,853.457 km
Eccentricity
0.00014
Inclination
53.1613°
RAAN
39.2923°
Arg. of periapsis
101.273°
True anomaly
258.82711°
Mean anomaly
258.8423°
Eccentric anomaly
258.83471°
Mean motion
3.82542 °/min
Orbital period
94.11 mins
BSTAR
0.00087756
Loading maneuver chart data...
Computing Atmospheric mass density...
Loading historical data...
Loading historical data...
Loading historical data...
Loading historical data...
Loading historical data...
Loading historical data...
Loading historical data...

Documentation

Showing up to 5 results
|